Yatton Keynell, United Kingdom

1:42 PM GMT on March 22, 2019 (GMT +0000)
Yatton Keynell

Weather History for 03740 - July, 2003

Change the Weather History Date:

Monday, July 28, 2003

  Actual Average Record
Temperature  
Mean Temperature 58 °F -  
Max Temperature 64 °F 68 °F - ()
Min Temperature 53 °F 53 °F - ()
Degree Days  
Heating Degree Days 6    
Growing Degree Days 8 (Base 50)    
Moisture  
Dew Point 55 °F    
Average Humidity 87    
Maximum Humidity 100    
Minimum Humidity 72    
Precipitation  
Precipitation 0.00 in 0.08 in - ()
Sea Level Pressure  
Sea Level Pressure 30.07 in    
Wind  
Wind Speed 7 mph ()    
Max Wind Speed 15 mph    
Max Gust Speed 28 mph    
Visibility 5.7 miles    
Events Rain    
T = Trace of Precipitation, MM = Missing Value Source: Averaged Metar Reports

Daily Weather History Graph

Daily Weather History Graph

Search for Another Location

Airport or City:

Astronomy

Jul. 28, 2003 Rise Set
Actual Time 5:24 AM BST 9:02 PM BST
Civil Twilight 4:43 AM BST 9:44 PM BST
Nautical Twilight 3:46 AM BST 10:40 PM BST
Astronomical Twilight 2:18 AM BST 12:05 AM BST
Moon 3:49 AM BST (7/28) 9:15 PM BST (7/28)
Length of Visible Light 17h 01m
Length of Day
15h 37m
Waning Crescent, 1% of the Moon is Illuminated
Jul 28
Waning Crescent
Jul 29
New
Aug 5
First Quarter
Aug 12
Full
Aug 20
Last Quarter

Hourly Weather History & Observations

Time (BST) Temp. Dew Point Humidity Pressure Visibility Wind Dir Wind Speed Gust Speed Precip Events Conditions
12:50 AM 53.6 °F 51.8 °F 94% 30.04 in - South 4.6 mph - N/A   Clear
1:50 AM 53.6 °F 51.8 °F 94% 30.04 in - South 5.8 mph - N/A   Clear
2:50 AM 53.6 °F 51.8 °F 94% 30.04 in - South 4.6 mph - N/A   Clear
3:50 AM 53.6 °F 50.0 °F 88% 30.04 in - SSW 5.8 mph - N/A   Clear
4:50 AM 53.6 °F 50.0 °F 88% 30.04 in - South 5.8 mph - N/A   Clear
5:50 AM 53.6 °F 51.8 °F 94% 30.06 in 6.2 mi South 3.5 mph - N/A   Partly Cloudy
6:50 AM 53.6 °F 51.8 °F 94% 30.06 in 6.2 mi SSE 4.6 mph - N/A   Partly Cloudy
7:50 AM 57.2 °F 53.6 °F 88% 30.06 in 6.2 mi South 4.6 mph - N/A   Scattered Clouds
8:50 AM 59.0 °F 53.6 °F 82% 30.06 in 6.2 mi SSW 9.2 mph - N/A   Scattered Clouds
9:50 AM 62.6 °F 53.6 °F 72% 30.09 in 6.2 mi SSW 11.5 mph - N/A   Mostly Cloudy
10:50 AM 62.6 °F 53.6 °F 72% 30.09 in 6.2 mi SSW 10.4 mph - N/A   Scattered Clouds
1:50 PM 62.6 °F 55.4 °F 77% 30.09 in 6.2 mi SSW 10.4 mph - N/A   Mostly Cloudy
2:50 PM 64.4 °F 57.2 °F 77% 30.09 in 6.2 mi SSW 11.5 mph - N/A   Mostly Cloudy
3:50 PM 64.4 °F 57.2 °F 77% 30.09 in 6.2 mi SSW 15.0 mph - N/A   Overcast
4:50 PM 64.4 °F 55.4 °F 73% 30.09 in 6.2 mi South 13.8 mph - N/A   Mostly Cloudy
5:50 PM 62.6 °F 57.2 °F 82% 30.09 in 6.2 mi South 12.7 mph 27.6 mph N/A   Overcast
6:50 PM 60.8 °F 59.0 °F 94% 30.06 in 6.2 mi South 11.5 mph - N/A Rain Rain
7:50 PM 60.8 °F 57.2 °F 88% 30.09 in 6.2 mi South 11.5 mph - N/A   Light Drizzle
8:50 PM 59.0 °F 57.2 °F 94% 30.09 in 4.3 mi South 12.7 mph - N/A Rain Rain
9:50 PM 59.0 °F 59.0 °F 100% 30.09 in 3.7 mi South 12.7 mph - N/A   Light Drizzle
10:50 PM 59.0 °F 59.0 °F 100% 30.06 in 2.5 mi South 12.7 mph - N/A Rain Rain
11:50 PM 60.8 °F 59.0 °F 94% 30.09 in 6.2 mi South 10.4 mph - N/A   Overcast